Preview of NWS' New Version of Forecast
This preview is not operational and should not be used for support decisions.

Regional Weather Roundup (RWR)

Issued by National Weather Service (NWS)

                            
000
ASUS43 KLSX 241257
RWRMO 

WEATHER SUMMARY FOR MISSOURI
NATIONAL WEATHER SERVICE SPRINGFIELD MO
800 AM CDT WED APR 24 2019

NOTE: "FAIR" INDICATES FEW OR NO CLOUDS BELOW 12,000 FEET WITH NO
       SIGNIFICANT WEATHER AND/OR OBSTRUCTIONS TO VISIBILITY.
       CURRENT SKY AND/OR WEATHER CONDITIONS ARE NOT AVAILABLE FOR
       CHILLICOTHE AND FARMINGTON.

MOZ001>031-035>038-043-044-053-054-241400-
...NORTHERN AND WESTERN MISSOURI...
  
CITY           SKY/WX    TMP DP  RH WIND       PRES   REMARKS
KANSAS CTY INT CLOUDY    53  50  89 CALM      29.95R                  
LEE'S SUMMIT   CLOUDY    53  51  93 E3        29.94S FOG              
ST JOSEPH      CLOUDY    52  52 100 N5        29.96S                  
CHILLICOTHE      N/A     54  50  86 CALM      29.96S                  
     
$$
MOZ066>068-077>081-088>096-101>105-241400-
...SOUTHWEST MISSOURI...
  
CITY           SKY/WX    TMP DP  RH WIND       PRES   REMARKS
SPRINGFIELD    CLOUDY    57  55  93 CALM      29.92R FOG              
JOPLIN         FOG       54  54 100 N3        29.94R VSB 3/4          
BRANSON        FOG       59  59 100 CALM      29.93F VSB 3/4          
               
$$
MOZ032>034-039>042-045>050-055>058-069>072-241400-
...CENTRAL MISSOURI...  
  
CITY           SKY/WX    TMP DP  RH WIND       PRES   REMARKS
COLUMBIA       NOT AVBL                                               
JEFFERSON CITY CLOUDY    58  55  90 CALM      29.93R FOG              
ROLLA          CLOUDY    56  54  93 E5        29.93R FOG              
SEDALIA        CLOUDY    52  52 100 NE6       29.94S FOG              
WARRENSBURG    CLOUDY    52  52 100 N3        29.95R FOG              
               
$$
MOZ051-052-059>065-241400-
...EAST CENTRAL MISSOURI...
  
CITY           SKY/WX    TMP DP  RH WIND       PRES   REMARKS
ST LOUIS INTL  CLOUDY    57  55  93 E10       29.94S                  
                   
$$
MOZ072>076-082>087-097>100-106>115-241400-
...SOUTH CENTRAL AND SOUTHEAST MISSOURI...
  
CITY           SKY/WX    TMP DP  RH WIND       PRES   REMARKS
CAPE GIRARDEAU FAIR      63  58  83 S6        29.94R                  
POPLAR BLUFF   FAIR      63  61  93 MISG      29.93S                  
WEST PLAINS    MOSUNNY   66  59  78 SW8       29.93S                  
                                       
$$